[[{"header":{"parameterUnit":"m.s-1","parameterCategory":1,"la1":30.2991,"la2":30.254,"lo1":-89.0895,"lo2":-89.0444,"dy":0.0017,"dx":0.0017,"nx":28,"ny":28,"refTime":"2023-10-06T09:00:00:Z","depth":0,"parameterNumber":2,"parameterNumberName":"U-component_of_WINDS"},"data":[0,0,0,0,0,0,0,0,0,0,0,0,0,0,0,0,0,0,0,0,0,0,0,0,0,0,0,0,0,0,0,0,0,0,0,0,0,0,0,0,0,0,0,0,0,0,0,0,0,0,0,0,0,0,0,0,0,0,-0.8952,-0.8951,0,-0.8872,-0.8871,-0.887,-0.8861,-0.8861,-0.8862,-0.8863,-0.8779,-0.8776,-0.8773,0,0,0,0,0,0,0,0,0,0,0,0,0,-0.9094,-0.9092,-0.8952,-0.8951,-0.895,-0.8872,-0.8871,-0.887,-0.886,-0.8861,-0.8862,-0.8863,-0.878,-0.8776,-0.8772,0,0,0,0,0,0,0,0,0,0,0,0,0,-0.9025,-0.9091,-0.8952,-0.8936,-0.8934,-0.8872,-0.8871,-0.8869,-0.886,-0.8861,-0.8863,-0.8864,-0.8781,-0.8776,-0.8772,-0.872,0,0,-0.8758,-0.8756,0,0,0,0,0,0,0,0,-0.9029,-0.902,-0.8939,-0.8937,-0.8934,-0.8877,-0.889,-0.8819,-0.886,-0.8888,-0.8863,-0.8864,-0.881,-0.8804,-0.8786,-0.8716,-0.8713,-0.8758,-0.8755,-0.8753,-0.8752,0,0,0,0,0,0,0,-0.9034,-0.9023,-0.892,-0.8938,-0.8935,-0.8932,-0.8923,-0.8877,-0.8843,-0.8886,-0.8885,-0.8876,-0.8809,-0.879,-0.8784,-0.8712,-0.8758,-0.8754,-0.8751,-0.875,-0.8595,-0.8594,0,0,0,0,0,0,-0.9042,-0.9027,-0.8923,-0.8918,-0.8986,-0.8928,-0.8919,-0.8894,-0.8844,-0.8837,-0.8875,-0.8875,-0.8797,-0.8789,-0.8781,-0.8716,-0.8753,-0.8749,-0.8747,-0.8597,-0.8595,-0.8593,0,0,0,0,0,0,-0.9045,-0.9033,-0.8926,-0.8972,-0.8958,-0.8925,-0.8897,-0.8892,-0.8873,-0.8836,-0.8829,-0.8861,-0.8798,-0.8787,-0.8735,-0.8713,-0.8747,-0.8743,-0.8598,-0.8596,-0.8594,-0.8587,0,0,0,0,0,0,-0.9049,-0.9034,-0.9015,-0.8972,-0.8956,-0.8882,-0.8896,-0.889,-0.8866,-0.8866,-0.8821,-0.8815,-0.8798,-0.8742,-0.8731,-0.8708,-0.8739,-0.86,-0.8597,-0.8595,-0.8589,-0.8585,-0.8582,0,0,0,0,0,-0.9054,-0.9015,-0.9014,-0.9001,-0.8931,-0.8881,-0.8872,-0.8854,-0.8864,-0.8844,-0.882,-0.8817,-0.8718,-0.8737,-0.8724,-0.8699,-0.8601,-0.8598,-0.8595,-0.8591,-0.8586,-0.8582,0,0,0,0,0,0,-0.9055,-0.901,-0.9007,-0.8953,-0.8921,-0.888,-0.8853,-0.8849,-0.8813,-0.8814,-0.8792,-0.8782,-0.8732,-0.871,-0.8733,-0.8646,-0.8661,-0.8655,-0.8662,-0.8657,-0.8653,-0.8659,-0.8736,0,0,0,0,0,-0.9049,-0.9014,-0.8975,-0.8931,-0.8916,-0.8887,-0.8865,-0.8854,-0.8819,-0.8806,-0.8778,-0.8744,-0.8705,-0.868,-0.8642,-0.8587,-0.8576,-0.8563,-0.856,-0.8557,-0.8551,-0.852,-0.8513,-0.8583,-0.8583,-0.8583,0,0,-0.9036,-0.9007,-0.8986,-0.8931,-0.8905,-0.8867,-0.8876,-0.8836,-0.8808,-0.8799,-0.8749,-0.8727,-0.8688,-0.8634,-0.8609,-0.8615,-0.853,-0.8553,-0.8551,-0.8547,-0.8516,-0.8509,-0.8503,-0.8581,-0.8581,-0.8582,0,0,-0.8993,-0.8968,-0.8928,-0.8902,-0.8863,-0.8845,-0.8835,-0.8794,-0.878,-0.8729,-0.8722,-0.8688,-0.8622,-0.8594,-0.8571,-0.8518,-0.8514,-0.8507,-0.8486,-0.8456,-0.845,-0.8445,-0.8425,-0.8418,-0.8502,-0.8502,-0.8502,0,-0.8982,-0.8926,-0.8909,-0.8869,-0.8844,-0.8836,-0.8795,-0.8771,-0.8721,-0.8704,-0.8712,-0.8629,-0.8602,-0.8541,-0.8528,-0.851,-0.8498,-0.8511,-0.8453,-0.8447,-0.8442,-0.8423,-0.8416,-0.8501,-0.8501,-0.8501,-0.8502,0,-0.8913,-0.8874,-0.8847,-0.88,-0.8773,-0.8733,-0.8708,-0.8683,-0.8674,-0.8655,-0.8603,-0.8571,-0.8526,-0.8511,-0.8502,-0.8448,-0.8453,-0.8457,-0.8471,-0.8435,-0.8417,-0.8409,-0.85,-0.8501,-0.8501,-0.8501,0,0,-0.8868,-0.8812,-0.8802,-0.878,-0.8736,-0.8706,-0.8665,-0.8622,-0.86,-0.8566,-0.8531,-0.8476,-0.8479,-0.8453,-0.8441,-0.8414,-0.8373,-0.8421,-0.842,-0.8412,-0.8311,-0.8308,-0.83,-0.8371,-0.8369,-0.8368,-0.8314,0,-0.8819,-0.8747,-0.873,-0.8668,-0.8631,-0.8623,-0.8588,-0.8557,-0.8537,-0.8503,-0.8482,-0.8442,-0.845,-0.8435,-0.8408,-0.8384,-0.8352,-0.8388,-0.8336,-0.8335,-0.8345,-0.829,-0.8286,-0.8237,-0.8307,-0.8306,-0.8305,0,-0.8752,-0.8717,-0.8652,-0.8612,-0.8596,-0.8565,-0.8524,-0.8492,-0.8456,-0.8444,-0.8415,-0.8406,-0.8363,-0.8379,-0.8319,-0.8343,-0.8322,-0.8307,-0.8304,-0.8297,-0.8317,-0.8281,-0.8221,-0.8213,-0.8293,-0.8294,-0.8295,0,-0.8724,-0.8661,-0.8613,-0.8595,-0.8548,-0.8526,-0.8506,-0.8471,-0.8447,-0.8411,-0.8394,-0.8354,-0.8331,-0.83,-0.828,-0.8294,-0.822,-0.8236,-0.8208,-0.8208,-0.8192,-0.8193,-0.8126,-0.818,-0.818,-0.818,-0.818,0,-0.8671,-0.8631,-0.86,-0.8571,-0.8525,-0.8506,-0.8462,-0.8441,-0.841,-0.8376,-0.8367,-0.8335,-0.831,-0.8275,-0.8259,-0.821,-0.82,-0.8189,-0.8185,-0.8189,-0.819,-0.8173,-0.8176,-0.8178,-0.8179,-0.8179,-0.8179,0,-0.8632,-0.861,-0.8557,-0.8517,-0.8506,-0.8475,-0.844,-0.8411,-0.8392,-0.8349,-0.8337,-0.8307,-0.8265,-0.8242,-0.8189,-0.8178,-0.8123,-0.8122,-0.8135,-0.8133,-0.8106,-0.8109,-0.8025,-0.8013,-0.8077,-0.8076,-0.8075,0,-0.8599,-0.8568,-0.8525,-0.8502,-0.8481,-0.8443,-0.8418,-0.8398,-0.8372,-0.8329,-0.8305,-0.8262,-0.8226,-0.8159,-0.8132,-0.8091,-0.8087,-0.8061,-0.8081,-0.8086,-0.8085,-0.8087,-0.8083,-0.8057,-0.8057,-0.8056,-0.8056,0,-0.8542,-0.8533,-0.8497,-0.8457,-0.8427,-0.8395,-0.8363,-0.8344,-0.8319,-0.829,-0.8247,-0.8219,-0.8165,-0.8122,-0.8079,-0.8057,-0.8052,-0.805,-0.8041,-0.8044,-0.8053,-0.8047,-0.8124,-0.8052,-0.8052,-0.8052,-0.8052,-0.8053,-0.8504,-0.8476,-0.8441,-0.8402,-0.8375,-0.8346,-0.8316,-0.8293,-0.8257,-0.8212,-0.8202,-0.8156,-0.8121,-0.8062,-0.8039,-0.8003,-0.8008,-0.7995,-0.7992,-0.7989,-0.7987,-0.806,-0.7995,-0.7995,-0.7995,-0.7995,-0.7995,0,-0.8446,-0.8424,-0.8387,-0.8343,-0.8311,-0.831,-0.8274,-0.8248,-0.8208,-0.8175,-0.8141,-0.8091,-0.8049,-0.8019,-0.7976,-0.7953,-0.7949,-0.7942,-0.7943,-0.7938,-0.7986,-0.7997,-0.7946,-0.7946,-0.7946,-0.7946,-0.7946,-0.7946,-0.8412,-0.8364,-0.8351,-0.8289,-0.8267,-0.8222,-0.8201,-0.8173,-0.8148,-0.8092,-0.8058,-0.8039,-0.8007,-0.7962,-0.7923,-0.7916,-0.79,-0.7893,-0.7884,-0.7929,-0.7935,-0.794,-0.795,-0.789,-0.789,-0.784,-0.7839,-0.7839]},{"header":{"parameterUnit":"m.s-1","parameterCategory":1,"la1":30.2991,"la2":30.254,"lo1":-89.0895,"lo2":-89.0444,"dy":0.0017,"dx":0.0017,"nx":28,"ny":28,"refTime":"2023-10-06T09:00:00:Z","depth":0,"parameterNumber":3,"parameterNumberName":"V-component_of_WINDS"},"data":[0,0,0,0,0,0,0,0,0,0,0,0,0,0,0,0,0,0,0,0,0,0,0,0,0,0,0,0,0,0,0,0,0,0,0,0,0,0,0,0,0,0,0,0,0,0,0,0,0,0,0,0,0,0,0,0,0,0,-0.4953,-0.4955,0,-0.5188,-0.5191,-0.5194,-0.5395,-0.5398,-0.54,-0.5402,-0.5634,-0.5638,-0.5642,0,0,0,0,0,0,0,0,0,0,0,0,0,-0.4667,-0.4671,-0.4952,-0.4955,-0.4958,-0.5188,-0.5191,-0.5194,-0.5395,-0.5398,-0.54,-0.5403,-0.5633,-0.5637,-0.5642,0,0,0,0,0,0,0,0,0,0,0,0,0,-0.4835,-0.4672,-0.4952,-0.5086,-0.5101,-0.5187,-0.5191,-0.5195,-0.5394,-0.5398,-0.5401,-0.5404,-0.5631,-0.5637,-0.5643,-0.5612,0,0,-0.5662,-0.5664,0,0,0,0,0,0,0,0,-0.4825,-0.4845,-0.5064,-0.5077,-0.5094,-0.5266,-0.5176,-0.5335,-0.5394,-0.5283,-0.5402,-0.5406,-0.5508,-0.5525,-0.5561,-0.5623,-0.5633,-0.5662,-0.5666,-0.5669,-0.567,0,0,0,0,0,0,0,-0.4813,-0.4836,-0.5046,-0.5067,-0.5085,-0.5132,-0.516,-0.5207,-0.5373,-0.5293,-0.5308,-0.5333,-0.5517,-0.5555,-0.5568,-0.5637,-0.5662,-0.5667,-0.5671,-0.5674,-0.5684,-0.568,0,0,0,0,0,0,-0.4782,-0.4825,-0.5038,-0.5053,-0.4965,-0.5134,-0.5165,-0.5207,-0.5373,-0.5402,-0.533,-0.5342,-0.5543,-0.5561,-0.5577,-0.5552,-0.5668,-0.5674,-0.5678,-0.5687,-0.5683,-0.5679,0,0,0,0,0,0,-0.4775,-0.4799,-0.5029,-0.4943,-0.4976,-0.5136,-0.5181,-0.521,-0.5248,-0.5402,-0.5432,-0.5339,-0.5546,-0.5568,-0.5603,-0.5562,-0.5677,-0.5682,-0.5691,-0.5686,-0.5681,-0.55,0,0,0,0,0,0,-0.4766,-0.4796,-0.4788,-0.4942,-0.498,-0.5053,-0.5179,-0.5212,-0.5259,-0.5277,-0.5418,-0.5444,-0.555,-0.5592,-0.5608,-0.5573,-0.5687,-0.5695,-0.5689,-0.5683,-0.551,-0.5489,-0.5471,0,0,0,0,0,-0.4755,-0.4726,-0.4787,-0.4811,-0.4974,-0.505,-0.5072,-0.5197,-0.5255,-0.5247,-0.5346,-0.544,-0.5564,-0.5594,-0.5614,-0.5579,-0.5698,-0.5691,-0.5683,-0.5519,-0.5493,-0.5472,0,0,0,0,0,0,-0.4561,-0.4749,-0.4818,-0.4838,-0.4927,-0.5084,-0.5078,-0.5166,-0.5238,-0.5251,-0.54,-0.543,-0.5447,-0.5517,-0.5547,-0.5558,-0.5644,-0.5639,-0.5512,-0.5489,-0.547,-0.5452,-0.5692,0,0,0,0,0,-0.4521,-0.457,-0.473,-0.4732,-0.4773,-0.4917,-0.4955,-0.5044,-0.5141,-0.5178,-0.528,-0.5367,-0.5426,-0.5461,-0.5524,-0.5521,-0.5553,-0.5507,-0.5487,-0.5471,-0.5465,-0.5467,-0.5448,-0.5654,-0.5654,-0.5654,0,0,-0.4438,-0.4546,-0.4568,-0.4696,-0.4775,-0.4819,-0.4948,-0.4989,-0.5023,-0.5184,-0.5223,-0.5299,-0.5407,-0.5422,-0.5433,-0.548,-0.5415,-0.5461,-0.5446,-0.5451,-0.5457,-0.5437,-0.542,-0.5649,-0.565,-0.5651,0,0,-0.4309,-0.4397,-0.4408,-0.4485,-0.4604,-0.47,-0.4702,-0.4846,-0.4904,-0.4946,-0.5067,-0.5107,-0.5206,-0.5277,-0.5326,-0.5222,-0.531,-0.5237,-0.5136,-0.5136,-0.5119,-0.5106,-0.5067,-0.5052,-0.5232,-0.5231,-0.5231,0,-0.419,-0.4265,-0.4402,-0.4437,-0.4488,-0.4638,-0.4649,-0.4716,-0.4847,-0.4877,-0.4929,-0.5055,-0.5138,-0.5171,-0.5146,-0.5181,-0.5185,-0.5222,-0.5111,-0.5099,-0.5088,-0.5053,-0.5038,-0.5221,-0.5223,-0.5224,-0.5224,0,-0.4112,-0.4161,-0.4155,-0.4282,-0.4332,-0.4354,-0.4491,-0.4525,-0.4609,-0.4698,-0.4737,-0.4841,-0.4927,-0.4942,-0.5023,-0.4985,-0.5011,-0.5084,-0.5174,-0.5056,-0.5026,-0.5013,-0.5208,-0.5211,-0.5214,-0.5216,0,0,-0.3869,-0.407,-0.4065,-0.4124,-0.4265,-0.4305,-0.4331,-0.4418,-0.4444,-0.4528,-0.4553,-0.4632,-0.4702,-0.4757,-0.4847,-0.4846,-0.4755,-0.4921,-0.4925,-0.4885,-0.4718,-0.4661,-0.4643,-0.4815,-0.4813,-0.4811,-0.4708,0,-0.3763,-0.3824,-0.3947,-0.3968,-0.4013,-0.4155,-0.4179,-0.4265,-0.4349,-0.4397,-0.4488,-0.4542,-0.4629,-0.4663,-0.467,-0.4765,-0.4723,-0.4774,-0.4836,-0.4837,-0.4805,-0.4628,-0.4568,-0.4467,-0.4697,-0.4696,-0.4694,0,-0.3648,-0.3727,-0.3752,-0.389,-0.3913,-0.3932,-0.4021,-0.4066,-0.4166,-0.4227,-0.4287,-0.4386,-0.4419,-0.4501,-0.4546,-0.4578,-0.461,-0.466,-0.4659,-0.4669,-0.4758,-0.4632,-0.4437,-0.4421,-0.4677,-0.4678,-0.468,0,-0.3466,-0.3578,-0.3609,-0.3654,-0.3815,-0.3825,-0.3891,-0.3996,-0.4039,-0.4115,-0.4144,-0.4221,-0.4263,-0.4318,-0.4434,-0.4484,-0.4465,-0.4558,-0.4514,-0.4511,-0.4504,-0.4502,-0.431,-0.4525,-0.4525,-0.4525,-0.4526,0,-0.3335,-0.3345,-0.3529,-0.3547,-0.3561,-0.37,-0.3709,-0.3789,-0.388,-0.3913,-0.404,-0.4067,-0.422,-0.4264,-0.4354,-0.4377,-0.4395,-0.4442,-0.4466,-0.4431,-0.4424,-0.4453,-0.4463,-0.4522,-0.4522,-0.4523,-0.4524,0,-0.3136,-0.326,-0.3301,-0.345,-0.3488,-0.3491,-0.3617,-0.3638,-0.3729,-0.3769,-0.3786,-0.3927,-0.3985,-0.4107,-0.4198,-0.4259,-0.4259,-0.4302,-0.4226,-0.4241,-0.419,-0.4192,-0.4009,-0.3991,-0.4216,-0.4214,-0.4212,0,-0.3044,-0.3055,-0.3205,-0.3238,-0.3301,-0.3352,-0.3397,-0.3533,-0.3575,-0.3689,-0.3695,-0.3764,-0.3827,-0.3913,-0.4021,-0.409,-0.4135,-0.4066,-0.4147,-0.411,-0.4133,-0.413,-0.4131,-0.4048,-0.4045,-0.4042,-0.404,0,-0.2867,-0.2927,-0.299,-0.3072,-0.3123,-0.3194,-0.3272,-0.329,-0.3444,-0.3483,-0.3546,-0.3595,-0.3688,-0.3754,-0.384,-0.3905,-0.3996,-0.4014,-0.4008,-0.3971,-0.3926,-0.3948,-0.4176,-0.4018,-0.402,-0.4022,-0.4023,-0.4024,-0.2718,-0.2734,-0.2842,-0.2906,-0.2979,-0.3048,-0.3075,-0.3168,-0.3224,-0.3313,-0.3389,-0.3444,-0.3541,-0.3666,-0.3726,-0.3768,-0.3814,-0.3804,-0.3802,-0.3797,-0.3781,-0.392,-0.3784,-0.3785,-0.3786,-0.3787,-0.3787,0,-0.2547,-0.2623,-0.2681,-0.2786,-0.2835,-0.292,-0.3009,-0.3044,-0.3092,-0.3177,-0.3236,-0.3306,-0.337,-0.3483,-0.3555,-0.3568,-0.3611,-0.3582,-0.3582,-0.3595,-0.3738,-0.3736,-0.3545,-0.3545,-0.3545,-0.3545,-0.3545,-0.3545,-0.2464,-0.2494,-0.2567,-0.2633,-0.271,-0.2767,-0.281,-0.2873,-0.2941,-0.3015,-0.307,-0.3144,-0.3238,-0.3319,-0.338,-0.3411,-0.3431,-0.3387,-0.3431,-0.3562,-0.3585,-0.3607,-0.3606,-0.3391,-0.3391,-0.3285,-0.3284,-0.3284]}]]